Greenland, New Hampshire, United States (03840)
Lat: 43.04N, Lon: 70.83W
Wx Zone: NHZ014
Local Info
Past Weather Observations for Wednesday, July 23, 2014

NOTE: This archive is for the closest National Weather Service station to Greenland. Information may differ from the station used for current weather conditions.

Click here for Long-term Archive

Time Weather Temperature Dewpoint Humidity Pressure Winds Precip Visibility
23:58
Overcast
Light Rain
70°F / 21°C 68°F / 20°C 94% 29.74 in
(1007 mb)
S 1.2 mph
(S 2 kph)
0.01 in
(0.25 mm)
7SM
22:58
Overcast
Light Rain
70°F / 21°C 70°F / 21°C 100% 29.77 in
(1008 mb)
NNW 1.2 mph
(NNW 2 kph)
0.00 in
(0.00 mm)
7SM
22:18
Mostly Cloudy
Light Rain
70°F / 21°C 68°F / 20°C 94% 29.77 in
(1008 mb)
SW 4.6 mph
(SW 7 kph)
- 10SM
21:58
Overcast
Light Rain
70°F / 21°C 68°F / 20°C 94% 29.77 in
(1008 mb)
SSE 5.8 mph
(SSE 9 kph)
0.11 in
(2.79 mm)
7SM
21:28
Overcast
Thunder Storms
72°F / 22°C 70°F / 21°C 94% 29.77 in
(1008 mb)
NW 1.2 mph
(NW 2 kph)
- 7SM
21:13
Overcast
Thunder Storms
72°F / 22°C 70°F / 21°C 94% 29.8 in
(1009 mb)
SSW 6.9 mph
(SSW 11 kph)
- 2SM
20:58
Overcast
Thunder Storms
72°F / 22°C 68°F / 20°C 88% 29.77 in
(1008 mb)
Variable 4.6 mph
(Variable 7 kph)
0.09 in
(2.29 mm)
5SM
20:14
Overcast
Thunder Storms
73°F / 23°C 68°F / 20°C 83% 29.8 in
(1009 mb)
WNW 10.4 mph
(WNW 17 kph)
- 7SM
19:58
Overcast
Thunder Storms
79°F / 26°C 66°F / 19°C 65% 29.77 in
(1008 mb)
NW 18.4 mph
(NW 30 kph)
0.00 in
(0.00 mm)
10SM
18:58
Overcast
84°F / 29°C 73°F / 23°C 70% 29.74 in
(1007 mb)
SW 3.5 mph
(SW 6 kph)
- 10SM
17:58
Mostly Cloudy
86°F / 30°C 72°F / 22°C 62% 29.71 in
(1006 mb)
SSE 6.9 mph
(SSE 11 kph)
- 10SM
16:58
Mostly Cloudy
90°F / 32°C 70°F / 21°C 52% 29.71 in
(1006 mb)
SW 8.1 mph
(SW 13 kph)
- 10SM
15:58
Mostly Cloudy
90°F / 32°C 70°F / 21°C 52% 29.71 in
(1006 mb)
SW 10.4 mph
(SW 17 kph)
- 10SM
14:58
Partly Cloudy
91°F / 33°C 70°F / 21°C 49% 29.74 in
(1007 mb)
SW 9.2 mph
(SW 15 kph)
- 10SM
13:58
Partly Cloudy
91°F / 33°C 72°F / 22°C 52% 29.74 in
(1007 mb)
SW 8.1 mph
(SW 13 kph)
- 10SM
12:58
Partly Cloudy
90°F / 32°C 72°F / 22°C 55% 29.77 in
(1008 mb)
SW 11.5 mph
(SW 19 kph)
- 10SM
11:58
Partly Cloudy
90°F / 32°C 72°F / 22°C 55% 29.8 in
(1009 mb)
SW 11.5 mph
(SW 19 kph)
- 10SM
10:58
Partly Cloudy
88°F / 31°C 72°F / 22°C 59% 29.8 in
(1009 mb)
SW 9.2 mph
(SW 15 kph)
- 10SM
09:58
Partly Cloudy
84°F / 29°C 72°F / 22°C 66% 29.83 in
(1010 mb)
SW 10.4 mph
(SW 17 kph)
- 10SM
08:58
Partly Cloudy
82°F / 28°C 72°F / 22°C 70% 29.86 in
(1011 mb)
SSW 8.1 mph
(SSW 13 kph)
- 10SM
07:58
Mostly Cloudy
77°F / 25°C 70°F / 21°C 79% 29.89 in
(1012 mb)
SSW 6.9 mph
(SSW 11 kph)
- 10SM
06:58
Clear
75°F / 24°C 68°F / 20°C 78% 29.89 in
(1012 mb)
SSW 9.2 mph
(SSW 15 kph)
- 10SM
05:58
Clear
73°F / 23°C 68°F / 20°C 83% 29.89 in
(1012 mb)
SW 6.9 mph
(SW 11 kph)
- 10SM
04:58
Clear
72°F / 22°C 68°F / 20°C 88% 29.92 in
(1013 mb)
SW 6.9 mph
(SW 11 kph)
- 10SM
03:58
Clear
72°F / 22°C 68°F / 20°C 88% 29.92 in
(1013 mb)
SW 6.9 mph
(SW 11 kph)
- 10SM
02:58
Clear
73°F / 23°C 68°F / 20°C 83% 29.92 in
(1013 mb)
SW 5.8 mph
(SW 9 kph)
- 10SM
01:58
Clear
73°F / 23°C 68°F / 20°C 83% 29.92 in
(1013 mb)
SSW 5.8 mph
(SSW 9 kph)
- 10SM
00:58
Clear
75°F / 24°C 68°F / 20°C 78% 29.95 in
(1014 mb)
SW 8.1 mph
(SW 13 kph)
- 10SM
Time Weather Temperature Dewpoint Humidity Pressure Winds Precip Visibility


Weather for websites

WeatherForYou.com, LLC is not responsible for any damages or problems caused by this service. Current weather conditions are obtained from the closest station including government and personal stations which may have varying degrees of accuracy. Weather forecasts are derived from the NOAA NDFD. Like all things, this site belongs to Jesus Christ... He just trusts me to maintain it. If you have any questions or comments email webmaster@weatherforyou.com

Copyright © 2014, WeatherForYou.com LLC. All rights reserved.